QPF
0.04 0.05 0.04 0.04 0.05 0.05 0.04 0.03 0.05 0.06 0.07 0.06 0.06 0.05 0.03 0.02 0.01 0.01 0.01 0.01 0.01 0.01 0.01 0.02 0.02 0.02 0.02 0.03 0.04 0.04 0.04 0.03 0.02 0.02 0.02 0.02 0.02 0.01
0.04 0.04 0.05 0.04 0.04 0.04 0.04 0.03 0.04 0.05 0.07 0.06 0.05 0.03 0.02 0.01 0.01 0.01 0.01 0.01 0.00 0.00 0.01 0.01 0.02 0.02 0.01 0.02 0.03 0.03 0.02 0.01 0.01 0.01 0.01 0.01 0.01 0.01
0.03 0.04 0.04 0.04 0.05 0.05 0.05 0.04 0.04 0.05 0.07 0.06 0.05 0.04 0.03 0.03 0.01 0.01 0.01 0.01 0.00 0.00 0.00 0.01 0.01 0.02 0.02 0.01 0.01 0.02 0.01 0.01 0.01 0.01 0.01 0.01 0.01 0.01
0.04 0.03 0.03 0.03 0.03 0.05 0.05 0.05 0.05 0.05 0.06 0.07 0.06 0.04 0.03 0.03 0.03 0.02 0.01 0.00 0.01 0.01 0.00 0.01 0.01 0.01 0.02 0.01 0.01 0.01 0.01 0.01 0.00 0.01 0.01 0.02 0.01 0.01
0.04 0.04 0.03 0.03 0.03 0.04 0.05 0.06 0.04 0.03 0.04 0.06 0.06 0.05 0.03 0.02 0.03 0.03 0.02 0.02 0.01 0.01 0.00 0.00 0.00 0.01 0.01 0.02 0.01 0.01 0.01 0.01 0.01 0.01 0.01 0.02 0.01 0.01
0.02 0.03 0.04 0.03 0.05 0.06 0.05 0.07 0.06 0.05 0.05 0.05 0.06 0.07 0.05 0.03 0.03 0.03 0.02 0.02 0.01 0.01 0.01 0.00 0.00 0.01 0.01 0.01 0.02 0.01 0.01 0.01 0.01 0.03 0.03 0.02 0.01 0.01
0.04 0.04 0.03 0.03 0.03 0.03 0.03 0.05 0.05 0.05 0.04 0.04 0.05 0.07 0.05 0.04 0.04 0.03 0.03 0.02 0.02 0.02 0.02 0.01 0.00 0.01 0.01 0.01 0.02 0.02 0.01 0.01 0.01 0.01 0.02 0.01 0.01 0.01
0.04 0.04 0.04 0.03 0.01 0.01 0.01 0.01 0.02 0.04 0.03 0.04 0.03 0.04 0.05 0.04 0.05 0.04 0.04 0.04 0.03 0.02 0.03 0.04 0.01 0.01 0.01 0.01 0.02 0.02 0.02 0.02 0.01 0.01 0.01 0.01 0.01 0.01
0.05 0.05 0.02 0.01 0.01 0.01 0.01 0.01 0.01 0.01 0.02 0.03 0.03 0.03 0.04 0.04 0.06 0.05 0.05 0.04 0.03 0.02 0.03 0.05 0.03 0.02 0.01 0.01 0.02 0.03 0.03 0.03 0.02 0.02 0.01 0.01 0.01 0.01
0.03 0.04 0.02 0.01 0.01 0.02 0.03 0.02 0.02 0.02 0.02 0.01 0.02 0.02 0.03 0.04 0.05 0.05 0.06 0.05 0.03 0.02 0.04 0.05 0.04 0.03 0.02 0.02 0.03 0.03 0.05 0.07 0.05 0.04 0.02 0.01 0.01 0.00
0.02 0.02 0.02 0.02 0.02 0.03 0.04 0.03 0.02 0.02 0.01 0.01 0.02 0.02 0.02 0.02 0.03 0.03 0.03 0.04 0.05 0.04 0.04 0.05 0.05 0.05 0.04 0.03 0.02 0.04 0.06 0.10 0.08 0.06 0.04 0.02 0.01 0.01
0.02 0.01 0.02 0.02 0.02 0.02 0.02 0.03 0.02 0.02 0.02 0.02 0.02 0.02 0.01 0.02 0.02 0.02 0.03 0.03 0.04 0.05 0.04 0.04 0.05 0.06 0.06 0.05 0.03 0.03 0.04 0.10 0.14 0.09 0.06 0.04 0.02 0.01
0.01 0.01 0.01 0.01 0.02 0.02 0.02 0.02 0.02 0.03 0.03 0.04 0.03 0.03 0.03 0.02 0.02 0.02 0.02 0.03 0.04 0.05 0.04 0.04 0.03 0.05 0.06 0.06 0.05 0.04 0.04 0.07 0.13 0.13 0.08 0.05 0.03 0.01
0.02 0.03 0.03 0.03 0.02 0.01 0.01 0.01 0.02 0.04 0.04 0.04 0.03 0.03 0.03 0.03 0.02 0.02 0.03 0.03 0.04 0.05 0.05 0.04 0.04 0.05 0.06 0.06 0.06 0.05 0.06 0.06 0.10 0.12 0.10 0.07 0.04 0.01
0.02 0.02 0.03 0.03 0.03 0.03 0.02 0.02 0.02 0.02 0.03 0.03 0.03 0.03 0.04 0.04 0.04 0.04 0.04 0.04 0.03 0.03 0.02 0.02 0.02 0.03 0.04 0.04 0.05 0.06 0.07 0.07 0.08 0.10 0.08 0.06 0.03 0.01
0.02 0.02 0.02 0.02 0.03 0.03 0.03 0.03 0.03 0.03 0.04 0.05 0.05 0.05 0.07 0.08 0.07 0.06 0.05 0.05 0.05 0.05 0.04 0.03 0.03 0.03 0.04 0.04 0.04 0.05 0.06 0.06 0.06 0.08 0.07 0.05 0.03 0.02
0.03 0.02 0.01 0.01 0.01 0.02 0.03 0.03 0.04 0.04 0.04 0.05 0.06 0.07 0.08 0.08 0.07 0.06 0.06 0.05 0.05 0.05 0.05 0.04 0.03 0.03 0.04 0.05 0.05 0.05 0.05 0.05 0.05 0.06 0.08 0.06 0.04 0.03
0.02 0.02 0.01 0.01 0.01 0.01 0.03 0.04 0.05 0.04 0.04 0.03 0.04 0.05 0.05 0.04 0.03 0.03 0.04 0.05 0.04 0.04 0.04 0.04 0.05 0.05 0.05 0.05 0.06 0.07 0.07 0.08 0.08 0.09 0.09 0.09 0.08 0.07
0.02 0.02 0.03 0.02 0.02 0.03 0.04 0.05 0.05 0.05 0.05 0.05 0.05 0.04 0.04 0.03 0.02 0.02 0.02 0.03 0.04 0.05 0.05 0.04 0.04 0.05 0.06 0.06 0.05 0.04 0.06 0.07 0.08 0.08 0.08 0.08 0.07 0.06
0.02 0.02 0.02 0.02 0.03 0.03 0.03 0.02 0.02 0.02 0.03 0.03 0.04 0.04 0.04 0.04 0.04 0.03 0.03 0.03 0.03 0.04 0.04 0.03 0.03 0.03 0.04 0.04 0.05 0.04 0.03 0.04 0.05 0.06 0.06 0.07 0.06 0.05
0.02 0.02 0.01 0.01 0.01 0.02 0.02 0.02 0.02 0.02 0.02 0.02 0.03 0.04 0.03 0.03 0.04 0.03 0.03 0.03 0.03 0.03 0.03 0.02 0.02 0.01 0.02 0.03 0.04 0.04 0.03 0.02 0.03 0.04 0.05 0.06 0.06 0.05
0.02 0.01 0.01 0.01 0.01 0.01 0.01 0.01 0.02 0.02 0.02 0.02 0.02 0.02 0.03 0.03 0.04 0.03 0.02 0.02 0.02 0.02 0.02 0.02 0.03 0.03 0.03 0.03 0.03 0.04 0.03 0.02 0.01 0.01 0.02 0.03 0.05 0.05
0.02 0.02 0.01 0.02 0.01 0.01 0.01 0.01 0.01 0.01 0.02 0.02 0.02 0.02 0.02 0.03 0.03 0.03 0.03 0.02 0.02 0.02 0.03 0.03 0.03 0.04 0.04 0.03 0.03 0.04 0.03 0.03 0.02 0.02 0.02 0.02 0.02 0.03
MSLP
1009.54 1009.86 1010.15 1010.36 1010.49 1010.52 1010.47 1010.34 1010.18 1010.02 1009.90 1009.85 1009.88 1009.99 1010.18 1010.41 1010.63 1010.82 1010.93 1010.94 1010.84 1010.63 1010.31 1009.93 1009.51 1009.07 1008.63 1008.23 1007.86 1007.54 1007.25 1007.00 1006.78 1006.61 1006.48 1006.40 1006.37 1006.41
1009.14 1009.41 1009.65 1009.84 1009.97 1010.02 1010.02 1009.96 1009.88 1009.79 1009.75 1009.75 1009.83 1009.98 1010.18 1010.41 1010.63 1010.82 1010.95 1010.98 1010.92 1010.76 1010.53 1010.24 1009.92 1009.59 1009.26 1008.95 1008.66 1008.38 1008.12 1007.87 1007.63 1007.40 1007.20 1007.05 1006.95 1006.92
1008.79 1009.00 1009.20 1009.37 1009.50 1009.59 1009.64 1009.64 1009.64 1009.63 1009.64 1009.71 1009.82 1009.98 1010.19 1010.41 1010.63 1010.81 1010.94 1010.99 1010.97 1010.88 1010.72 1010.53 1010.32 1010.10 1009.89 1009.68 1009.48 1009.27 1009.05 1008.81 1008.55 1008.28 1008.03 1007.80 1007.63 1007.53
1008.54 1008.70 1008.87 1009.03 1009.18 1009.30 1009.40 1009.47 1009.53 1009.58 1009.65 1009.74 1009.87 1010.03 1010.22 1010.42 1010.61 1010.78 1010.90 1010.96 1010.97 1010.92 1010.84 1010.73 1010.62 1010.51 1010.41 1010.31 1010.20 1010.07 1009.90 1009.70 1009.44 1009.16 1008.86 1008.58 1008.35 1008.18
1008.41 1008.55 1008.70 1008.86 1009.03 1009.19 1009.33 1009.46 1009.57 1009.67 1009.76 1009.86 1009.98 1010.12 1010.27 1010.43 1010.58 1010.71 1010.80 1010.86 1010.88 1010.87 1010.83 1010.79 1010.76 1010.74 1010.73 1010.72 1010.71 1010.67 1010.58 1010.43 1010.22 1009.95 1009.65 1009.35 1009.08 1008.86
1008.39 1008.51 1008.66 1008.83 1009.02 1009.22 1009.41 1009.58 1009.72 1009.84 1009.94 1010.03 1010.12 1010.21 1010.31 1010.40 1010.50 1010.58 1010.64 1010.67 1010.69 1010.68 1010.67 1010.67 1010.69 1010.73 1010.80 1010.88 1010.96 1011.01 1011.01 1010.94 1010.81 1010.60 1010.34 1010.05 1009.78 1009.54
1008.44 1008.55 1008.69 1008.88 1009.09 1009.32 1009.54 1009.74 1009.91 1010.04 1010.13 1010.19 1010.23 1010.27 1010.30 1010.33 1010.36 1010.39 1010.41 1010.41 1010.41 1010.39 1010.39 1010.40 1010.44 1010.52 1010.63 1010.78 1010.93 1011.07 1011.17 1011.21 1011.18 1011.07 1010.88 1010.65 1010.41 1010.19
1008.51 1008.59 1008.73 1008.92 1009.15 1009.40 1009.65 1009.87 1010.05 1010.18 1010.26 1010.29 1010.28 1010.26 1010.23 1010.21 1010.18 1010.16 1010.14 1010.11 1010.08 1010.05 1010.03 1010.03 1010.07 1010.15 1010.29 1010.47 1010.69 1010.91 1011.11 1011.26 1011.34 1011.34 1011.27 1011.12 1010.94 1010.76
1008.55 1008.59 1008.71 1008.89 1009.13 1009.39 1009.66 1009.91 1010.09 1010.22 1010.28 1010.28 1010.24 1010.18 1010.10 1010.03 1009.97 1009.92 1009.88 1009.82 1009.77 1009.72 1009.67 1009.65 1009.66 1009.73 1009.86 1010.06 1010.31 1010.58 1010.86 1011.11 1011.31 1011.43 1011.47 1011.43 1011.33 1011.20
1008.54 1008.54 1008.61 1008.77 1009.00 1009.28 1009.56 1009.81 1010.01 1010.14 1010.19 1010.18 1010.11 1010.03 1009.93 1009.84 1009.77 1009.71 1009.65 1009.60 1009.53 1009.46 1009.39 1009.34 1009.32 1009.35 1009.45 1009.62 1009.87 1010.17 1010.49 1010.81 1011.10 1011.33 1011.47 1011.53 1011.51 1011.44
1008.52 1008.45 1008.47 1008.60 1008.81 1009.08 1009.37 1009.62 1009.83 1009.96 1010.01 1009.99 1009.93 1009.83 1009.74 1009.65 1009.58 1009.53 1009.49 1009.45 1009.39 1009.31 1009.22 1009.13 1009.07 1009.04 1009.09 1009.22 1009.43 1009.71 1010.04 1010.40 1010.73 1011.02 1011.24 1011.38 1011.43 1011.41
1008.55 1008.39 1008.36 1008.44 1008.62 1008.88 1009.15 1009.41 1009.61 1009.75 1009.80 1009.78 1009.72 1009.63 1009.54 1009.47 1009.42 1009.39 1009.37 1009.35 1009.30 1009.22 1009.12 1009.00 1008.89 1008.81 1008.79 1008.85 1009.00 1009.23 1009.52 1009.85 1010.19 1010.51 1010.76 1010.94 1011.04 1011.08
1008.69 1008.45 1008.35 1008.38 1008.52 1008.75 1009.00 1009.24 1009.44 1009.56 1009.61 1009.58 1009.52 1009.43 1009.34 1009.28 1009.25 1009.24 1009.24 1009.24 1009.20 1009.13 1009.02 1008.88 1008.73 1008.59 1008.50 1008.47 1008.54 1008.69 1008.91 1009.19 1009.49 1009.78 1010.03 1010.23 1010.36 1010.43
1009.00 1008.68 1008.51 1008.49 1008.59 1008.77 1008.99 1009.20 1009.37 1009.46 1009.48 1009.44 1009.35 1009.24 1009.14 1009.07 1009.03 1009.03 1009.04 1009.04 1009.02 1008.95 1008.83 1008.67 1008.48 1008.29 1008.13 1008.03 1008.00 1008.06 1008.20 1008.40 1008.63 1008.87 1009.10 1009.28 1009.43 1009.52
1009.49 1009.12 1008.90 1008.82 1008.87 1009.00 1009.17 1009.33 1009.45 1009.49 1009.46 1009.37 1009.23 1009.07 1008.93 1008.82 1008.75 1008.72 1008.71 1008.70 1008.66 1008.59 1008.46 1008.28 1008.07 1007.84 1007.63 1007.46 1007.36 1007.34 1007.39 1007.50 1007.67 1007.85 1008.04 1008.21 1008.35 1008.47
1010.17 1009.76 1009.49 1009.37 1009.37 1009.45 1009.55 1009.65 1009.69 1009.67 1009.56 1009.39 1009.17 1008.94 1008.73 1008.55 1008.41 1008.32 1008.25 1008.20 1008.13 1008.03 1007.88 1007.69 1007.46 1007.21 1006.97 1006.76 1006.61 1006.53 1006.52 1006.57 1006.68 1006.82 1006.98 1007.14 1007.30 1007.45
1010.97 1010.55 1010.27 1010.12 1010.07 1010.09 1010.13 1010.14 1010.11 1009.99 1009.79 1009.53 1009.21 1008.88 1008.56 1008.28 1008.05 1007.86 1007.71 1007.59 1007.46 1007.32 1007.14 1006.92 1006.68 1006.43 1006.18 1005.97 1005.80 1005.70 1005.67 1005.70 1005.78 1005.91 1006.07 1006.24 1006.43 1006.63
1011.84 1011.44 1011.16 1010.99 1010.91 1010.88 1010.85 1010.79 1010.66 1010.46 1010.16 1009.80 1009.38 1008.94 1008.51 1008.11 1007.75 1007.45 1007.20 1006.98 1006.77 1006.56 1006.34 1006.10 1005.85 1005.59 1005.36 1005.16 1005.01 1004.93 1004.92 1004.97 1005.08 1005.24 1005.44 1005.66 1005.89 1006.15
1012.73 1012.37 1012.11 1011.94 1011.83 1011.75 1011.67 1011.54 1011.34 1011.05 1010.67 1010.21 1009.69 1009.15 1008.61 1008.09 1007.62 1007.20 1006.83 1006.49 1006.19 1005.90 1005.61 1005.33 1005.06 1004.81 1004.59 1004.43 1004.33 1004.30 1004.35 1004.46 1004.64 1004.87 1005.14 1005.43 1005.75 1006.08
1013.58 1013.28 1013.04 1012.88 1012.76 1012.65 1012.52 1012.34 1012.08 1011.72 1011.28 1010.75 1010.16 1009.54 1008.91 1008.29 1007.71 1007.17 1006.68 1006.23 1005.82 1005.43 1005.07 1004.74 1004.43 1004.17 1003.97 1003.84 1003.79 1003.83 1003.96 1004.17 1004.45 1004.78 1005.15 1005.55 1005.96 1006.38
1014.37 1014.12 1013.92 1013.77 1013.64 1013.51 1013.35 1013.13 1012.83 1012.43 1011.95 1011.38 1010.75 1010.08 1009.38 1008.69 1008.03 1007.39 1006.79 1006.23 1005.70 1005.22 1004.76 1004.35 1004.00 1003.71 1003.51 1003.40 1003.40 1003.51 1003.72 1004.04 1004.43 1004.88 1005.37 1005.88 1006.40 1006.92
1015.08 1014.88 1014.70 1014.56 1014.43 1014.28 1014.09 1013.85 1013.52 1013.11 1012.60 1012.02 1011.37 1010.67 1009.95 1009.21 1008.49 1007.78 1007.09 1006.42 1005.79 1005.20 1004.64 1004.15 1003.72 1003.39 1003.16 1003.05 1003.08 1003.25 1003.54 1003.95 1004.45 1005.03 1005.64 1006.28 1006.91 1007.52
1015.71 1015.52 1015.36 1015.22 1015.08 1014.91 1014.70 1014.43 1014.08 1013.65 1013.14 1012.56 1011.91 1011.21 1010.47 1009.72 1008.96 1008.19 1007.43 1006.68 1005.96 1005.26 1004.61 1004.02 1003.51 1003.11 1002.83 1002.71 1002.74 1002.94 1003.29 1003.77 1004.37 1005.06 1005.79 1006.54 1007.28 1007.98
Thickness
5712 5710 5710 5712 5712 5712 5712 5711 5706 5704 5706 5709 5710 5711 5709 5708 5704 5703 5702 5698 5696 5695 5694 5693 5692 5692 5691 5690 5689 5689 5688 5686 5685 5684 5682 5681 5680 5679
5708 5707 5706 5708 5709 5709 5709 5708 5708 5704 5703 5708 5707 5709 5706 5706 5701 5701 5700 5697 5695 5694 5693 5692 5692 5690 5689 5688 5688 5687 5686 5685 5683 5682 5680 5679 5678 5676
5704 5703 5703 5703 5704 5705 5705 5705 5705 5704 5700 5703 5706 5705 5702 5701 5700 5699 5698 5696 5696 5693 5692 5691 5691 5689 5688 5687 5686 5685 5684 5683 5681 5680 5679 5677 5675 5674
5699 5698 5698 5699 5698 5699 5699 5700 5700 5699 5698 5695 5698 5699 5697 5697 5696 5696 5697 5696 5696 5693 5691 5690 5689 5688 5687 5686 5685 5684 5682 5681 5680 5678 5676 5675 5673 5671
5694 5694 5694 5694 5693 5694 5694 5695 5695 5697 5696 5694 5694 5694 5695 5694 5693 5693 5695 5693 5694 5693 5690 5689 5688 5687 5686 5685 5684 5683 5681 5679 5678 5676 5674 5673 5671 5670
5689 5689 5689 5689 5689 5689 5689 5688 5689 5690 5690 5691 5691 5691 5690 5691 5690 5690 5691 5691 5693 5694 5691 5690 5688 5686 5685 5684 5683 5681 5680 5678 5676 5675 5673 5671 5670 5668
5684 5684 5685 5683 5682 5682 5685 5684 5684 5684 5686 5686 5687 5687 5686 5685 5686 5689 5689 5690 5691 5692 5691 5690 5689 5688 5687 5684 5682 5681 5679 5677 5675 5673 5672 5670 5668 5666
5678 5679 5679 5678 5677 5675 5676 5676 5677 5678 5680 5681 5682 5681 5680 5683 5683 5685 5685 5684 5684 5689 5687 5688 5689 5689 5688 5687 5684 5681 5678 5675 5673 5671 5670 5668 5666 5664
5673 5673 5676 5676 5674 5675 5673 5671 5671 5671 5671 5674 5676 5676 5677 5678 5678 5679 5679 5679 5680 5684 5683 5684 5686 5686 5687 5686 5683 5679 5676 5674 5671 5669 5667 5666 5664 5662
5667 5668 5668 5668 5669 5668 5669 5670 5671 5670 5669 5669 5671 5672 5674 5674 5673 5674 5674 5675 5677 5679 5679 5679 5683 5683 5686 5684 5680 5677 5674 5672 5669 5667 5665 5663 5661 5659
5663 5663 5663 5663 5660 5658 5661 5663 5664 5665 5664 5664 5663 5664 5664 5665 5667 5669 5670 5671 5672 5675 5676 5675 5678 5680 5681 5681 5678 5675 5673 5670 5667 5665 5662 5660 5659 5657
5658 5658 5655 5654 5652 5651 5654 5656 5656 5658 5660 5661 5658 5658 5660 5661 5660 5663 5666 5667 5668 5670 5672 5670 5673 5674 5674 5678 5677 5674 5670 5668 5665 5663 5660 5658 5655 5654
5653 5654 5654 5647 5645 5644 5645 5649 5649 5649 5652 5654 5656 5657 5658 5659 5660 5660 5662 5663 5664 5665 5668 5666 5667 5668 5668 5669 5671 5671 5670 5668 5664 5661 5658 5655 5653 5651
5645 5647 5646 5640 5639 5638 5639 5640 5640 5640 5647 5649 5650 5652 5654 5656 5658 5658 5657 5658 5658 5660 5660 5660 5661 5660 5661 5661 5662 5664 5665 5664 5662 5660 5658 5654 5650 5647
5637 5635 5634 5632 5632 5633 5633 5633 5634 5638 5641 5643 5645 5647 5650 5651 5653 5652 5653 5652 5652 5654 5655 5654 5655 5655 5656 5657 5658 5658 5657 5657 5657 5656 5655 5652 5649 5646
5627 5627 5625 5625 5626 5628 5629 5630 5632 5635 5637 5638 5640 5643 5644 5645 5646 5647 5647 5647 5648 5649 5649 5648 5648 5648 5649 5651 5652 5652 5652 5651 5651 5651 5649 5648 5646 5644
5617 5620 5622 5624 5626 5627 5628 5629 5630 5630 5631 5633 5635 5636 5637 5638 5639 5640 5640 5641 5641 5642 5643 5644 5643 5643 5643 5644 5644 5646 5646 5645 5645 5644 5641 5641 5642 5640
5607 5612 5615 5617 5619 5622 5623 5624 5624 5625 5625 5627 5628 5629 5630 5631 5633 5635 5635 5634 5635 5637 5638 5638 5638 5637 5637 5640 5638 5639 5639 5639 5639 5638 5637 5635 5635 5635
5601 5606 5608 5610 5613 5615 5617 5619 5619 5619 5619 5619 5620 5621 5623 5624 5626 5627 5628 5628 5629 5630 5632 5632 5631 5630 5629 5631 5634 5631 5632 5632 5631 5631 5630 5629 5630 5630
5597 5600 5602 5603 5605 5607 5609 5611 5612 5612 5612 5612 5612 5613 5614 5616 5617 5619 5620 5620 5622 5623 5624 5625 5625 5624 5624 5625 5626 5626 5623 5624 5624 5624 5624 5623 5623 5622
5591 5594 5595 5596 5597 5599 5601 5602 5603 5603 5603 5604 5604 5605 5606 5607 5609 5610 5612 5611 5612 5615 5615 5617 5618 5616 5617 5617 5618 5619 5619 5615 5616 5615 5616 5615 5615 5615
5584 5586 5587 5588 5589 5590 5592 5593 5594 5595 5595 5595 5596 5597 5599 5599 5601 5602 5604 5605 5606 5607 5608 5610 5610 5609 5609 5608 5609 5610 5610 5609 5607 5605 5605 5605 5606 5607
5576 5577 5578 5579 5580 5581 5583 5584 5585 5586 5587 5587 5588 5589 5591 5592 5592 5594 5596 5597 5598 5599 5600 5601 5602 5602 5603 5603 5603 5603 5602 5601 5601 5599 5600 5599 5597 5596